Home   Weather   Holyhead   Past weeks
Flag for United Kingdom

Past Weather in Holyhead, Wales, United Kingdom — Yesterday and Last 2 Weeks

Now
50 °F

Partly cloudy.


Feels Like: 42 °F
Forecast: 44 / 50 °F
Wind: 29 mph from Southwest

Location: Valley

Current Time: Jan 16, 2019 at 4:18:40 am

Latest Report: Jan 16, 2019 at 2:50 am


Visibility: 6 mi

Pressure: 29.65 "Hg

Humidity: 88%

Dew Point: 46 °F

Location of HolyheadLocation

Past Weather in Holyhead — Graph

°F

Holyhead Temperature Yesterday

Maximum temperature yesterday: 50 °F (at 11:50 am)
Minimum temperature yesterday: 48 °F (at 12:50 am)
Average temperature yesterday: 48 °F

High & Low Weather Summary for the Past Weeks

 TemperatureHumidityPressure
High52 °F (Jan 6, 12:50 pm)100% (Jan 1, 10:50 am)30.83 "Hg (Jan 1, 10:50 am)
Low34 °F (Jan 2, 6:50 am)66% (Jan 2, 1:50 pm)29.65 "Hg (Jan 16, 2:50 am)
Average46 °F83%30.46 "Hg
* Reported Jan 1 2:50 am — Jan 16 2:50 am, Holyhead. Weather by CustomWeather, © 2019

Note: Actual official high and low records may vary slightly from our data, if they occured in-between our weather recording intervals... More about our weather records

Advertising

Holyhead Weather History for the Previous 24 Hours

Scroll right to see more
 ConditionsComfort  
Time TempWeatherWind HumidityBarometerVisibility
2:50 am
Wed, Jan 16
50 °FPartly cloudy.29 mph88%29.65 "Hg6 mi
1:50 am48 °FPartly cloudy.28 mph94%29.68 "Hg4 mi
12:50 am50 °FPassing clouds.26 mph88%29.71 "HgN/A
11:50 pm
Tue, Jan 15
48 °FPassing clouds.24 mph94%29.74 "HgN/A
10:50 pm50 °FPassing clouds.22 mph88%29.74 "HgN/A
9:50 pm48 °FPassing clouds.22 mph94%29.77 "HgN/A
8:50 pm48 °FPassing clouds.23 mph94%29.80 "HgN/A
7:50 pm48 °FPassing clouds.26 mph94%29.83 "HgN/A
6:50 pm48 °FPartly cloudy.23 mph94%29.86 "HgN/A
5:50 pm48 °FPassing clouds.21 mph94%29.89 "HgN/A
4:50 pm48 °FPassing clouds.18 mph94%29.89 "HgN/A
3:50 pm48 °FPartly sunny.20 mph94%29.92 "HgN/A
2:50 pm48 °FScattered clouds.20 mph87%29.95 "HgN/A
1:50 pm50 °FPartly sunny.18 mph82%29.95 "HgN/A
12:50 pm50 °FPartly sunny.20 mph82%29.98 "HgN/A
11:50 am50 °FPartly sunny.18 mph82%30.01 "HgN/A
10:50 am48 °FPartly sunny.18 mph87%30.04 "HgN/A
9:50 am48 °FPartly sunny.16 mph87%30.04 "HgN/A
8:50 am48 °FPartly sunny.15 mph87%30.04 "HgN/A
7:50 am48 °FPassing clouds.18 mph87%30.04 "HgN/A
6:50 am48 °FPassing clouds.17 mph87%30.04 "HgN/A
5:50 am48 °FOvercast.20 mph87%30.07 "HgN/A
4:50 am48 °FOvercast.20 mph94%30.07 "HgN/A
Weather by CustomWeather, © 2019

See weather overview